Waarnemingen

Advertentie
Mijn weer
Biscarosse, Frankrijk (7503): temperatuur & dauwpunt: 23.04.2017 19:00:00 - 29.04.2017 19:00:00 (CEST)Biscarosse, Frankrijk (7503): temperatuur 5cm: 23.04.2017 19:00:00 - 29.04.2017 19:00:00 (CEST)Biscarosse, Frankrijk (7503): temperatuur -20cm & temperatuur -100cm: 23.04.2017 19:00:00 - 29.04.2017 19:00:00 (CEST)Biscarosse, Frankrijk (7503): windsnelheid & windstoten: 23.04.2017 19:00:00 - 29.04.2017 19:00:00 (CEST)Biscarosse, Frankrijk (7503): windrichting: 23.04.2017 19:00:00 - 29.04.2017 19:00:00 (CEST)Biscarosse, Frankrijk (7503): luchtdruk: 23.04.2017 19:00:00 - 29.04.2017 19:00:00 (CEST)Biscarosse, Frankrijk (7503): zicht: 23.04.2017 19:00:00 - 29.04.2017 19:00:00 (CEST)Biscarosse, Frankrijk (7503): Zonneschijnduur: 23.04.2017 19:00:00 - 29.04.2017 19:00:00 (CEST)Biscarosse, Frankrijk (7503): neerslag: 23.04.2017 19:00:00 - 29.04.2017 19:00:00 (CEST)
Datum & Tijd tt [°C] td [°C] tt 5cm [°C] tt -20cm [°C] tt -100cm [°C] ff [km/u] ff [kn] fx [km/u] fx [kn] dd ppp [hPa] vv [km] sd [min] rr [mm]
29.04.2017 19:00:00 21,3 2,0 25,5 19,9 17,2 4 2 10 5 WZW 1007,4 20 57 0,0
29.04.2017 18:00:00 21,3 2,0 25,2 19,2 17,2 7 4 11 6 N 1007,7 20 45 0,0
29.04.2017 17:00:00 20,7 2,5 25,6 18,3 17,2 6 3 16 8 NNW 1008,2 20 24 0,0
29.04.2017 16:00:00 21,1 -0,9 25,6 17,5 17,2 9 5 36 19 WNW 1008,8 20 40 0,0
29.04.2017 15:00:00 21,2 -0,8 28,5 16,9 17,2 19 11 35 19 ZZO 1009,5 20 60 0,0
29.04.2017 14:00:00 19,6 -1,5 - - - 16 9 39 21 ZZO 1010,4 20 - -
29.04.2017 13:00:00 18,6 -1,3 24,2 16,2 17,2 17 9 40 22 ZO 1011,4 20 60 0,0
29.04.2017 12:00:00 17,6 -0,7 21,1 16,2 17,2 23 13 45 24 ZZO 1012,0 20 60 0,0
29.04.2017 11:00:00 15,4 0,4 18,3 16,3 17,2 25 13 47 26 ZO 1013,0 20 60 0,0
29.04.2017 10:00:00 13,0 1,3 13,9 16,6 17,2 19 10 41 22 ZO 1013,5 20 60 0,0
29.04.2017 09:00:00 10,0 1,4 7,2 16,9 17,2 18 10 36 19 ZO 1014,1 20 60 0,0
29.04.2017 08:00:00 6,4 0,7 4,2 17,2 17,2 15 8 29 16 ZO 1014,6 20 7 0,0
29.04.2017 07:00:00 4,9 0,1 4,2 17,6 17,2 10 5 24 13 ZO 1014,8 20 0 0,0
29.04.2017 06:00:00 6,8 0,7 5,6 17,9 17,2 15 8 27 15 OZO 1015,3 20 0 0,0
29.04.2017 05:00:00 7,2 1,7 6,2 18,3 17,2 14 8 24 13 OZO 1015,9 20 0 0,0
29.04.2017 04:00:00 7,6 2,7 6,6 18,6 17,2 14 8 25 13 OZO 1016,4 20 0 0,0
29.04.2017 03:00:00 8,0 3,3 7,2 18,9 17,2 13 7 25 13 O 1016,9 20 0 0,0
29.04.2017 02:00:00 8,7 3,7 7,9 19,2 17,2 14 8 29 15 O 1017,5 20 0 0,0
29.04.2017 01:00:00 9,1 3,3 8,3 19,5 17,2 11 6 22 12 O 1018,0 20 0 0,0
29.04.2017 00:00:00 9,3 3,5 7,8 19,7 17,2 11 6 18 10 O 1018,5 20 0 0,0
28.04.2017 23:00:00 8,9 3,1 7,7 19,8 17,2 9 5 14 7 ONO 1018,7 20 0 0,0
28.04.2017 22:00:00 9,6 2,9 8,6 19,8 17,2 9 5 17 9 NO 1018,5 20 0 0,0
28.04.2017 21:00:00 11,5 3,8 10,7 19,6 17,2 16 8 26 14 NNO 1018,3 20 42 0,0
28.04.2017 20:00:00 13,3 4,2 15,1 19,3 17,3 20 11 25 14 N 1018,5 20 60 0,0
28.04.2017 19:00:00 13,8 4,1 16,1 18,8 17,3 18 10 24 13 N 1018,9 20 57 0,0
28.04.2017 18:00:00 13,2 4,6 16,4 18,3 17,3 18 10 23 12 N 1019,3 20 53 0,0
28.04.2017 17:00:00 12,9 4,3 18,0 17,7 17,3 17 9 22 12 NNW 1019,6 20 23 0,0
28.04.2017 16:00:00 13,3 5,0 18,9 17,2 17,3 16 9 23 12 NNW 1020,0 20 17 0,0
28.04.2017 15:00:00 13,4 4,5 19,1 16,7 17,3 16 9 21 11 NNW 1020,3 20 39 0,0
28.04.2017 14:00:00 12,3 4,0 17,6 16,4 17,3 14 8 19 10 WNW 1020,7 20 8 0,0
28.04.2017 13:00:00 12,8 4,0 16,6 16,2 17,3 15 8 19 10 W 1020,9 20 24 0,0
28.04.2017 12:00:00 11,2 3,2 16,1 16,2 17,3 11 6 16 9 W 1021,3 20 31 0,0
28.04.2017 11:00:00 11,4 3,7 17,9 16,2 17,3 9 5 12 7 W 1021,3 20 44 0,0
28.04.2017 10:00:00 11,1 3,1 15,4 16,4 17,3 6 3 13 7 W 1021,2 20 53 0,0
28.04.2017 09:00:00 9,4 4,8 6,6 16,7 17,3 3 2 7 4 O 1021,2 20 18 0,0
28.04.2017 08:00:00 6,2 3,2 5,2 17,0 17,3 5 3 10 6 ZZO 1021,1 20 0 0,0
28.04.2017 07:00:00 5,2 2,2 3,0 17,3 17,3 9 5 11 6 Z 1021,1 20 0 0,0
28.04.2017 06:00:00 6,4 2,8 5,0 17,7 17,3 7 4 10 5 ZO 1021,0 20 0 0,0
28.04.2017 05:00:00 6,2 2,8 3,5 18,1 17,3 9 5 13 7 O 1021,3 20 0 0,0
28.04.2017 04:00:00 6,3 2,2 3,5 18,4 17,3 10 6 15 8 O 1021,4 20 0 0,0
28.04.2017 03:00:00 5,4 1,9 3,5 18,8 17,4 8 4 11 6 O 1021,8 20 0 0,0
28.04.2017 02:00:00 6,0 1,7 4,4 19,2 17,3 8 5 11 6 O 1021,9 20 0 0,0
28.04.2017 01:00:00 7,1 2,2 5,1 19,5 17,3 9 5 12 6 O 1021,9 20 0 0,0
28.04.2017 00:00:00 6,7 1,0 5,7 19,7 17,4 8 4 19 10 ONO 1022,0 20 0 0,0
27.04.2017 23:00:00 8,3 1,4 7,3 19,8 17,4 11 6 33 18 NO 1021,9 20 0 0,0
27.04.2017 22:00:00 8,8 0,7 7,7 19,9 17,4 29 15 37 20 N 1021,3 20 0 0,0
27.04.2017 21:00:00 9,8 0,1 9,0 19,7 17,4 31 17 44 24 N 1020,8 20 41 0,0
27.04.2017 20:00:00 11,4 0,5 13,0 19,3 17,4 33 18 42 23 N 1020,5 20 60 0,0
27.04.2017 19:00:00 12,2 0,9 14,5 18,8 17,5 32 17 44 24 N 1020,0 20 60 0,0
27.04.2017 18:00:00 12,7 1,4 14,6 18,2 17,5 36 19 46 25 N 1019,7 20 60 0,0
27.04.2017 17:00:00 13,2 1,8 21,4 17,5 17,5 36 20 46 25 N 1019,6 20 60 0,0
27.04.2017 16:00:00 13,0 1,3 18,7 17,0 17,5 34 18 44 24 N 1019,7 20 58 0,0
27.04.2017 15:00:00 12,2 2,3 15,4 16,4 17,5 31 17 42 23 N 1019,7 25 51 0,0
27.04.2017 14:00:00 10,8 1,6 12,5 16,0 17,5 28 15 35 19 N 1019,9 20 39 0,0
27.04.2017 13:00:00 10,8 1,9 15,0 15,7 17,5 26 14 33 18 N 1019,9 20 40 0,0
27.04.2017 12:00:00 12,0 1,0 18,2 15,6 17,5 21 11 25 13 N 1019,9 20 57 0,0
27.04.2017 11:00:00 11,1 1,3 15,7 15,8 17,6 11 6 25 14 NO 1019,8 25 60 0,0
27.04.2017 10:00:00 9,4 1,3 12,4 16,1 17,6 10 6 23 13 ONO 1019,7 25 60 0,0
27.04.2017 09:00:00 7,7 1,3 6,2 16,4 17,6 9 5 18 10 O 1019,3 25 54 0,0
27.04.2017 08:00:00 5,1 2,3 2,0 16,7 17,6 9 5 15 8 O 1018,9 25 4 0,0
27.04.2017 07:00:00 3,7 1,4 1,5 17,1 17,6 10 5 15 8 O 1018,6 20 0 0,0
27.04.2017 06:00:00 4,0 0,9 2,0 17,4 17,6 9 5 18 10 O 1018,2 20 0 0,0
27.04.2017 05:00:00 4,8 1,6 2,5 17,8 17,6 9 5 15 8 O 1018,2 20 0 0,0
27.04.2017 04:00:00 5,3 1,0 3,3 18,1 17,6 6 3 14 8 ONO 1017,6 20 0 0,0
27.04.2017 03:00:00 5,7 0,8 3,2 18,5 17,7 9 5 12 6 O 1017,7 20 0 0,0
27.04.2017 02:00:00 6,4 0,9 5,1 18,8 17,6 9 5 15 8 ONO 1018,1 20 0 0,0
27.04.2017 01:00:00 6,8 -0,4 5,3 19,1 17,7 11 6 17 9 ONO 1018,3 20 0 0,0
27.04.2017 00:00:00 7,3 0,9 6,1 19,3 17,7 10 5 23 13 ONO 1018,3 20 0 0,0
26.04.2017 23:00:00 7,9 0,1 6,7 19,5 17,7 11 6 22 12 ONO 1018,3 20 0 0,0
26.04.2017 22:00:00 8,8 -0,5 7,7 19,4 17,7 12 6 31 17 NO 1017,9 20 0 0,0
26.04.2017 21:00:00 9,7 -1,7 8,9 19,3 17,8 25 13 34 19 NNO 1017,1 20 40 0,0
26.04.2017 20:00:00 11,3 -1,2 13,1 19,0 17,8 28 15 35 19 N 1016,4 20 60 0,0
26.04.2017 19:00:00 11,7 -1,8 12,8 18,4 17,8 26 14 38 21 N 1016,1 20 38 0,0
26.04.2017 18:00:00 11,7 -0,5 13,5 17,8 17,8 29 16 39 21 N 1016,0 20 58 0,0
26.04.2017 17:00:00 12,9 0,9 21,7 17,2 17,9 30 16 37 20 N 1016,1 20 60 0,0
26.04.2017 16:00:00 12,5 0,6 21,2 16,7 17,9 30 16 39 21 N 1016,0 20 60 0,0
26.04.2017 15:00:00 12,2 1,8 19,9 16,3 17,9 29 16 37 20 N 1015,7 20 60 0,0
26.04.2017 14:00:00 11,5 2,0 20,4 16,1 18,0 30 16 37 20 N 1015,5 20 60 0,0
26.04.2017 13:00:00 11,1 2,6 16,9 16,1 18,0 25 14 31 17 N 1015,4 25 36 0,0
26.04.2017 12:00:00 10,6 2,9 14,6 16,1 18,0 19 11 27 15 N 1015,3 20 24 0,0
26.04.2017 11:00:00 9,6 1,7 10,6 16,3 18,0 16 9 28 15 NNO 1015,2 25 0 0,0
26.04.2017 10:00:00 8,2 1,3 8,7 16,5 18,0 10 6 21 11 NO 1014,6 20 0 0,0
26.04.2017 09:00:00 7,4 1,2 6,7 16,7 18,1 10 5 27 15 NO 1014,3 20 2 0,0
26.04.2017 08:00:00 6,2 1,3 5,6 17,0 18,1 13 7 23 12 NO 1013,8 20 3 0,0
26.04.2017 07:00:00 6,0 2,5 5,6 17,2 18,1 15 8 29 15 NO 1013,0 25 0 0,0
26.04.2017 06:00:00 6,2 3,2 6,0 17,5 18,1 14 7 24 13 NNO 1012,7 20 0 0,0
26.04.2017 05:00:00 6,5 3,5 6,1 17,7 18,1 12 7 23 12 NO 1012,2 20 0 0,0
26.04.2017 04:00:00 6,6 3,7 6,1 18,0 18,1 12 6 26 14 NO 1012,0 20 0 0,0
26.04.2017 03:00:00 6,8 3,8 6,5 18,2 18,1 15 8 33 18 NO 1012,0 20 0 0,0
26.04.2017 02:00:00 7,1 3,9 7,2 18,5 18,1 13 7 27 15 NO 1012,1 20 0 0,0
26.04.2017 01:00:00 7,5 4,3 7,5 18,7 18,2 12 7 29 15 NO 1011,9 20 0 0,0
26.04.2017 00:00:00 9,1 5,8 8,9 19,0 18,2 13 7 22 12 NO 1011,3 20 0 0,0
25.04.2017 23:00:00 10,1 6,4 10,0 19,1 18,2 9 5 23 12 NO 1011,2 20 0 0,0
25.04.2017 22:00:00 10,6 6,2 10,6 19,3 18,2 11 6 29 16 NO 1010,2 20 0 0,0
25.04.2017 21:00:00 11,1 7,8 11,2 19,4 18,2 22 12 41 22 NNO 1010,0 20 0 0,0
25.04.2017 20:00:00 11,5 8,7 11,8 19,5 18,2 30 16 49 26 NNO 1009,1 20 0 0,0
25.04.2017 19:00:00 12,5 9,5 13,0 19,5 18,2 35 19 45 24 NNO 1008,7 19 0 0,0
25.04.2017 18:00:00 14,3 9,7 14,4 19,5 18,2 12 6 26 14 NNO 1008,2 20 2 0,0
25.04.2017 17:00:00 13,0 9,8 14,8 19,5 18,2 22 12 28 15 N 1008,3 20 0 0,0
25.04.2017 16:00:00 13,3 10,8 15,4 19,5 18,2 15 8 18 10 NW 1008,9 20 0 0,0
25.04.2017 15:00:00 13,7 11,7 13,9 19,5 18,1 11 6 13 7 WZW 1008,7 16 0 0,0
25.04.2017 14:00:00 13,6 10,4 13,8 19,7 18,2 9 5 11 6 WZW 1008,6 20 0 0,0
25.04.2017 13:00:00 13,8 10,8 13,5 19,9 18,2 3 2 6 3 WNW 1008,8 20 0 0,0
25.04.2017 12:00:00 12,8 11,7 12,8 20,1 18,1 4 2 8 5 ZZW 1009,4 12 0 0,2
25.04.2017 11:00:00 12,6 11,7 12,5 20,3 18,1 5 3 10 5 ZZO 1009,5 10 0 0,4
25.04.2017 10:00:00 12,3 11,4 12,2 20,5 18,1 3 1 10 6 ZO 1009,7 10 0 0,4
25.04.2017 09:00:00 12,2 11,3 12,0 20,8 18,1 5 3 9 5 Z 1009,7 10 0 0,0
25.04.2017 08:00:00 11,6 10,5 11,0 21,2 18,1 2 1 11 6 ZZW 1009,9 12 0 0,0
25.04.2017 07:00:00 11,5 10,4 11,1 21,5 18,1 6 3 13 7 NNW 1009,6 7 0 0,0
25.04.2017 06:00:00 12,1 11,0 11,8 21,7 18,1 8 5 13 7 OZO 1009,3 9 0 1,4
25.04.2017 05:00:00 12,3 10,9 11,3 22,0 18,0 16 8 29 15 ZW 1011,0 13 0 1,6
25.04.2017 04:00:00 12,8 9,6 12,2 22,3 18,0 11 6 21 11 O 1009,8 20 0 0,0
25.04.2017 03:00:00 12,6 10,7 11,4 22,6 18,0 11 6 16 8 NNW 1011,4 20 0 0,0
25.04.2017 02:00:00 12,4 9,8 11,1 23,0 18,0 10 5 14 8 NO 1011,1 20 0 0,0
25.04.2017 01:00:00 11,8 8,8 10,4 23,3 18,0 7 4 13 7 N 1012,6 20 0 0,0
25.04.2017 00:00:00 11,3 8,0 9,7 23,5 18,0 7 4 16 9 NNO 1012,5 20 0 0,0
24.04.2017 23:00:00 11,7 8,2 9,7 23,6 18,0 13 7 18 10 NNO 1012,5 20 0 0,0
24.04.2017 22:00:00 12,2 7,9 10,7 23,6 17,9 8 5 19 11 NNO 1012,3 20 0 0,0
24.04.2017 21:00:00 13,3 8,6 11,9 23,4 17,9 16 8 26 14 NNO 1012,2 20 31 0,0
24.04.2017 20:00:00 15,7 8,7 16,3 23,1 17,9 21 11 29 16 NNO 1012,1 20 39 0,0
24.04.2017 19:00:00 15,4 7,7 17,6 22,6 17,9 22 12 27 15 NNO 1012,3 20 55 0,0
24.04.2017 18:00:00 16,3 8,3 18,8 22,0 18,0 21 12 27 15 N 1012,7 20 60 0,0
24.04.2017 17:00:00 16,2 8,4 25,8 21,3 17,9 21 11 26 14 N 1013,3 20 60 0,0
24.04.2017 16:00:00 15,9 8,4 26,8 20,7 17,9 22 12 26 14 N 1013,9 20 60 0,0
24.04.2017 15:00:00 16,9 7,5 25,8 20,2 17,9 19 11 24 13 N 1014,4 20 60 0,0
24.04.2017 14:00:00 15,7 6,7 25,8 19,9 17,9 18 10 22 12 N 1014,9 20 60 0,0
24.04.2017 13:00:00 15,0 5,2 25,0 19,8 17,9 17 9 21 11 N 1015,6 20 60 0,0
24.04.2017 12:00:00 14,6 4,0 25,1 19,8 17,9 14 7 16 9 N 1016,0 20 60 0,0
24.04.2017 11:00:00 14,7 5,5 23,5 20,0 17,8 12 6 16 9 N 1016,2 20 60 0,0
24.04.2017 10:00:00 14,1 4,7 19,5 20,4 17,8 10 5 13 7 N 1016,3 20 60 0,0
24.04.2017 09:00:00 12,4 3,6 10,2 20,8 17,8 3 2 6 3 NO 1016,2 20 60 0,0
24.04.2017 08:00:00 7,9 3,0 4,1 21,2 17,8 4 2 6 3 NO 1016,3 20 9 0,0
24.04.2017 07:00:00 7,2 1,7 4,1 21,6 17,8 5 3 10 5 NNO 1016,0 20 0 0,0
24.04.2017 06:00:00 8,4 1,3 5,2 22,0 17,7 9 5 11 6 NNO 1016,0 20 0 0,0
24.04.2017 05:00:00 9,3 1,2 6,4 22,3 17,7 6 4 10 6 NO 1016,2 20 0 0,0
24.04.2017 04:00:00 10,7 1,2 7,8 22,7 17,7 6 4 11 6 NNO 1016,6 20 0 0,0
24.04.2017 03:00:00 12,1 1,4 10,6 23,0 17,7 6 3 19 11 NO 1016,9 20 0 0,0
24.04.2017 02:00:00 13,2 1,8 12,1 23,3 17,6 11 6 21 12 ONO 1017,1 20 0 0,0
24.04.2017 01:00:00 14,3 2,5 13,3 23,6 17,6 13 7 21 12 ONO 1017,4 20 0 0,0
24.04.2017 00:00:00 15,4 3,8 14,2 23,8 17,6 11 6 27 15 ONO 1017,7 20 0 0,0
23.04.2017 23:00:00 16,5 4,2 15,3 23,9 17,6 11 6 22 12 ONO 1017,8 20 0 0,0
23.04.2017 22:00:00 17,7 3,6 16,2 23,8 17,6 10 6 17 9 ONO 1017,5 20 0 0,0
23.04.2017 21:00:00 18,8 3,0 17,0 23,5 17,6 8 4 23 12 NO 1017,2 20 37 0,0
23.04.2017 20:00:00 20,5 7,1 22,1 23,2 17,6 17 9 30 16 NNO 1017,2 20 60 0,0
23.04.2017 19:00:00 19,5 9,1 21,6 22,6 17,5 19 10 31 17 NNO 1017,2 20 60 0,0

tt = temperatuur
td = dauwpunt
tt 5cm = temperatuur 5cm
tt -20cm = temperatuur -20cm
tt -100cm = temperatuur -100cm
ff = windsnelheid
fx = windstoten
dd = windrichting
ppp = luchtdruk
vv = zicht
sd = Zonneschijnduur
rr = neerslag

Weerstations in de omgeving